Time,TemperatureF,DewpointF,PressureIn,WindDirection,WindDirectionDegrees,WindSpeedMPH,WindSpeedGustMPH,Humidity,HourlyPrecipIn,Conditions,Clouds,dailyrainin,SoftwareType,DateUTC
2013-02-17 00:03:00,25.4,18.0,30.10,WSW,258,3.0,-999.0,72,-99.99,,,0.00,weatherlink.com 1.10,2013-02-17 07:03:00,
2013-02-17 00:18:00,24.4,17.0,30.09,WSW,258,3.0,-999.0,72,-99.99,,,0.00,weatherlink.com 1.10,2013-02-17 07:18:00,
2013-02-17 00:33:00,25.3,17.0,30.09,WSW,258,0.0,-999.0,72,-99.99,,,0.00,weatherlink.com 1.10,2013-02-17 07:33:00,
2013-02-17 00:48:00,25.1,17.0,30.09,WSW,258,2.0,-999.0,71,-99.99,,,0.00,weatherlink.com 1.10,2013-02-17 07:48:00,
2013-02-17 01:04:00,25.1,17.0,30.09,WSW,258,3.0,-999.0,72,-99.99,,,0.00,weatherlink.com 1.10,2013-02-17 08:04:00,
2013-02-17 01:18:00,25.6,17.0,30.05,WSW,258,2.0,-999.0,70,-99.99,,,0.00,weatherlink.com 1.10,2013-02-17 08:18:00,
2013-02-17 01:33:00,25.0,17.0,30.05,WSW,258,3.0,-999.0,70,-99.99,,,0.00,weatherlink.com 1.10,2013-02-17 08:33:00,
2013-02-17 01:48:00,24.4,16.0,30.05,WSW,258,3.0,-999.0,71,-99.99,,,0.00,weatherlink.com 1.10,2013-02-17 08:48:00,
2013-02-17 02:03:00,23.9,16.0,30.05,WSW,258,2.0,-999.0,72,-99.99,,,0.00,weatherlink.com 1.10,2013-02-17 09:03:00,
2013-02-17 02:19:00,22.9,15.0,30.03,WSW,258,1.0,-999.0,73,-99.99,,,0.00,weatherlink.com 1.10,2013-02-17 09:19:00,
2013-02-17 02:33:00,23.5,16.0,30.03,WSW,258,1.0,-999.0,74,-99.99,,,0.00,weatherlink.com 1.10,2013-02-17 09:33:00,
2013-02-17 02:48:00,23.6,16.0,30.03,WSW,258,3.0,-999.0,73,-99.99,,,0.00,weatherlink.com 1.10,2013-02-17 09:48:00,
2013-02-17 03:04:00,23.6,16.0,30.03,WSW,258,0.0,-999.0,72,-99.99,,,0.00,weatherlink.com 1.10,2013-02-17 10:04:00,
2013-02-17 03:19:00,23.2,15.0,30.00,WSW,258,0.0,-999.0,72,-99.99,,,0.00,weatherlink.com 1.10,2013-02-17 10:19:00,
2013-02-17 03:34:00,23.0,16.0,30.00,WSW,258,1.0,-999.0,74,-99.99,,,0.00,weatherlink.com 1.10,2013-02-17 10:34:00,
2013-02-17 03:49:00,23.9,16.0,29.98,WSW,258,3.0,-999.0,72,-99.99,,,0.00,weatherlink.com 1.10,2013-02-17 10:49:00,
2013-02-17 04:04:00,24.4,16.0,29.98,WSW,258,5.0,-999.0,70,-99.99,,,0.00,weatherlink.com 1.10,2013-02-17 11:04:00,
2013-02-17 04:19:00,24.2,15.0,29.99,WSW,258,5.0,-999.0,68,-99.99,,,0.00,weatherlink.com 1.10,2013-02-17 11:19:00,
2013-02-17 04:34:00,22.2,14.0,29.99,WSW,258,3.0,-999.0,70,-99.99,,,0.00,weatherlink.com 1.10,2013-02-17 11:34:00,
2013-02-17 04:49:00,21.3,14.0,30.00,WSW,258,2.0,-999.0,74,-99.99,,,0.00,weatherlink.com 1.10,2013-02-17 11:49:00,
2013-02-17 05:04:00,22.5,15.0,29.99,WSW,258,3.0,-999.0,72,-99.99,,,0.00,weatherlink.com 1.10,2013-02-17 12:04:00,
2013-02-17 05:19:00,22.4,15.0,30.03,WSW,258,1.0,-999.0,72,-99.99,,,0.00,weatherlink.com 1.10,2013-02-17 12:19:00,
2013-02-17 05:34:00,22.9,15.0,30.00,WSW,258,2.0,-999.0,72,-99.99,,,0.00,weatherlink.com 1.10,2013-02-17 12:34:00,
2013-02-17 05:49:00,22.2,14.0,30.01,WSW,258,3.0,-999.0,72,-99.99,,,0.00,weatherlink.com 1.10,2013-02-17 12:49:00,
2013-02-17 06:04:00,21.8,14.0,30.01,WSW,258,2.0,-999.0,72,-99.99,,,0.00,weatherlink.com 1.10,2013-02-17 13:04:00,
2013-02-17 06:19:00,22.1,14.0,30.02,NE,50,5.0,-999.0,71,-99.99,,,0.00,weatherlink.com 1.10,2013-02-17 13:19:00,
2013-02-17 06:34:00,22.2,14.0,30.03,NE,49,2.0,-999.0,70,-99.99,,,0.00,weatherlink.com 1.10,2013-02-17 13:34:00,
2013-02-17 06:49:00,22.7,14.0,30.01,NE,49,3.0,-999.0,70,-99.99,,,0.00,weatherlink.com 1.10,2013-02-17 13:49:00,
2013-02-17 07:04:00,22.9,14.0,30.01,NE,49,4.0,-999.0,70,-99.99,,,0.00,weatherlink.com 1.10,2013-02-17 14:04:00,
2013-02-17 07:19:00,22.4,14.0,30.02,NE,48,1.0,-999.0,71,-99.99,,,0.00,weatherlink.com 1.10,2013-02-17 14:19:00,
2013-02-17 07:34:00,23.0,15.0,30.01,NE,49,4.0,-999.0,70,-99.99,,,0.00,weatherlink.com 1.10,2013-02-17 14:34:00,
2013-02-17 07:49:00,23.3,15.0,30.01,NE,49,1.0,-999.0,69,-99.99,,,0.00,weatherlink.com 1.10,2013-02-17 14:49:00,
2013-02-17 08:05:00,25.4,16.0,29.99,NE,49,4.0,-999.0,68,-99.99,,,0.00,weatherlink.com 1.10,2013-02-17 15:05:00,
2013-02-17 08:21:00,27.9,17.0,30.01,NE,49,3.0,-999.0,63,-99.99,,,0.00,weatherlink.com 1.10,2013-02-17 15:21:00,
2013-02-17 08:35:00,30.9,18.0,30.00,NE,49,3.0,-999.0,60,-99.99,,,0.00,weatherlink.com 1.10,2013-02-17 15:35:00,
2013-02-17 08:50:00,34.1,19.0,29.98,NE,48,2.0,-999.0,54,-99.99,,,0.00,weatherlink.com 1.10,2013-02-17 15:50:00,
2013-02-17 09:06:00,38.2,19.0,29.95,NE,46,0.0,-999.0,47,-99.99,,,0.00,weatherlink.com 1.10,2013-02-17 16:06:00,
2013-02-17 09:21:00,39.6,19.0,29.95,NE,46,0.0,-999.0,44,-99.99,,,0.00,weatherlink.com 1.10,2013-02-17 16:21:00,
2013-02-17 09:36:00,42.3,14.0,29.93,ENE,77,5.0,-999.0,32,-99.99,,,0.00,weatherlink.com 1.10,2013-02-17 16:36:00,
2013-02-17 09:51:00,43.1,15.0,29.92,ENE,75,6.0,-999.0,32,-99.99,,,0.00,weatherlink.com 1.10,2013-02-17 16:51:00,
2013-02-17 10:06:00,43.9,13.0,29.90,East,89,5.0,-999.0,28,-99.99,,,0.00,weatherlink.com 1.10,2013-02-17 17:06:00,
2013-02-17 10:22:00,44.2,13.0,29.91,ENE,69,7.0,-999.0,28,-99.99,,,0.00,weatherlink.com 1.10,2013-02-17 17:22:00,
2013-02-17 10:36:00,44.3,12.0,29.90,East,87,4.0,-999.0,27,-99.99,,,0.00,weatherlink.com 1.10,2013-02-17 17:36:00,
2013-02-17 10:52:00,45.1,13.0,29.88,ESE,115,0.0,-999.0,27,-99.99,,,0.00,weatherlink.com 1.10,2013-02-17 17:52:00,
2013-02-17 11:06:00,45.8,14.0,29.87,ESE,111,6.0,-999.0,28,-99.99,,,0.00,weatherlink.com 1.10,2013-02-17 18:06:00,
2013-02-17 11:22:00,46.2,14.0,29.85,ENE,72,3.0,-999.0,27,-99.99,,,0.00,weatherlink.com 1.10,2013-02-17 18:22:00,
2013-02-17 11:36:00,47.6,14.0,29.85,East,83,4.0,-999.0,26,-99.99,,,0.00,weatherlink.com 1.10,2013-02-17 18:36:00,
2013-02-17 11:52:00,48.6,14.0,29.82,NE,43,3.0,-999.0,25,-99.99,,,0.00,weatherlink.com 1.10,2013-02-17 18:52:00,
2013-02-17 12:07:00,48.3,13.0,29.82,East,83,2.0,-999.0,24,-99.99,,,0.00,weatherlink.com 1.10,2013-02-17 19:07:00,
2013-02-17 12:22:00,48.2,14.0,29.80,East,94,4.0,-999.0,25,-99.99,,,0.00,weatherlink.com 1.10,2013-02-17 19:22:00,
2013-02-17 12:38:00,48.6,12.0,29.78,East,91,2.0,-999.0,23,-99.99,,,0.00,weatherlink.com 1.10,2013-02-17 19:38:00,
2013-02-17 12:53:00,49.1,12.0,29.76,ENE,78,2.0,-999.0,22,-99.99,,,0.00,weatherlink.com 1.10,2013-02-17 19:53:00,
2013-02-17 13:08:00,49.8,12.0,29.75,North,1,1.0,-999.0,22,-99.99,,,0.00,weatherlink.com 1.10,2013-02-17 20:08:00,
2013-02-17 13:24:00,50.5,11.0,29.75,North,1,0.0,-999.0,20,-99.99,,,0.00,weatherlink.com 1.10,2013-02-17 20:24:00,
2013-02-17 13:38:00,51.1,12.0,29.74,North,352,0.0,-999.0,21,-99.99,,,0.00,weatherlink.com 1.10,2013-02-17 20:38:00,
2013-02-17 13:54:00,52.5,11.0,29.72,North,350,0.0,-999.0,19,-99.99,,,0.00,weatherlink.com 1.10,2013-02-17 20:54:00,
2013-02-17 14:08:00,53.9,10.0,29.70,North,350,2.0,-999.0,17,-99.99,,,0.00,weatherlink.com 1.10,2013-02-17 21:08:00,
2013-02-17 14:23:00,53.6,12.0,29.69,NNW,344,4.0,-999.0,19,-99.99,,,0.00,weatherlink.com 1.10,2013-02-17 21:23:00,
2013-02-17 14:38:00,53.6,11.0,29.67,NW,305,0.0,-999.0,18,-99.99,,,0.00,weatherlink.com 1.10,2013-02-17 21:38:00,
2013-02-17 14:54:00,54.8,9.0,29.66,NW,311,1.0,-999.0,16,-99.99,,,0.00,weatherlink.com 1.10,2013-02-17 21:54:00,
2013-02-17 15:09:00,54.4,9.0,29.65,WSW,258,6.0,-999.0,16,-99.99,,,0.00,weatherlink.com 1.10,2013-02-17 22:09:00,
2013-02-17 15:24:00,54.8,8.0,29.65,WSW,257,0.0,-999.0,15,-99.99,,,0.00,weatherlink.com 1.10,2013-02-17 22:24:00,
2013-02-17 15:39:00,54.5,8.0,29.65,West,263,2.0,-999.0,15,-99.99,,,0.00,weatherlink.com 1.10,2013-02-17 22:39:00,
2013-02-17 15:55:00,55.1,9.0,29.64,West,261,1.0,-999.0,16,-99.99,,,0.00,weatherlink.com 1.10,2013-02-17 22:55:00,
2013-02-17 16:10:00,55.1,8.0,29.64,West,259,5.0,-999.0,15,-99.99,,,0.00,weatherlink.com 1.10,2013-02-17 23:10:00,
2013-02-17 16:25:00,54.4,9.0,29.64,WSW,252,13.0,-999.0,16,-99.99,,,0.00,weatherlink.com 1.10,2013-02-17 23:25:00,
2013-02-17 16:40:00,53.8,8.0,29.64,West,269,6.0,-999.0,16,-99.99,,,0.00,weatherlink.com 1.10,2013-02-17 23:40:00,
2013-02-17 16:55:00,53.2,9.0,29.64,West,259,10.0,-999.0,17,-99.99,,,0.00,weatherlink.com 1.10,2013-02-17 23:55:00,
2013-02-17 17:09:00,52.8,9.0,29.64,WSW,254,4.0,-999.0,17,-99.99,,,0.00,weatherlink.com 1.10,2013-02-18 00:09:00,
2013-02-17 17:24:00,51.9,9.0,29.64,WSW,255,5.0,-999.0,18,-99.99,,,0.00,weatherlink.com 1.10,2013-02-18 00:24:00,
2013-02-17 17:39:00,50.4,11.0,29.66,West,262,4.0,-999.0,20,-99.99,,,0.00,weatherlink.com 1.10,2013-02-18 00:39:00,
2013-02-17 17:54:00,48.0,12.0,29.67,West,264,3.0,-999.0,23,-99.99,,,0.00,weatherlink.com 1.10,2013-02-18 00:54:00,
2013-02-17 18:11:00,45.8,13.0,29.68,West,264,0.0,-999.0,27,-99.99,,,0.00,weatherlink.com 1.10,2013-02-18 01:11:00,
2013-02-17 18:25:00,43.9,12.0,29.68,West,264,0.0,-999.0,27,-99.99,,,0.00,weatherlink.com 1.10,2013-02-18 01:25:00,
2013-02-17 18:40:00,42.3,13.0,29.70,West,264,0.0,-999.0,30,-99.99,,,0.00,weatherlink.com 1.10,2013-02-18 01:40:00,
2013-02-17 18:55:00,40.8,12.0,29.71,West,264,0.0,-999.0,31,-99.99,,,0.00,weatherlink.com 1.10,2013-02-18 01:55:00,
2013-02-17 19:10:00,39.5,12.0,29.73,West,264,0.0,-999.0,33,-99.99,,,0.00,weatherlink.com 1.10,2013-02-18 02:10:00,
2013-02-17 19:25:00,41.1,10.0,29.72,West,264,0.0,-999.0,28,-99.99,,,0.00,weatherlink.com 1.10,2013-02-18 02:25:00,
2013-02-17 19:40:00,40.6,12.0,29.71,West,264,0.0,-999.0,31,-99.99,,,0.00,weatherlink.com 1.10,2013-02-18 02:40:00,
2013-02-17 19:55:00,35.9,14.0,29.72,West,264,0.0,-999.0,41,-99.99,,,0.00,weatherlink.com 1.10,2013-02-18 02:55:00,
2013-02-17 20:10:00,35.5,15.0,29.75,West,264,2.0,-999.0,44,-99.99,,,0.00,weatherlink.com 1.10,2013-02-18 03:10:00,
2013-02-17 20:25:00,33.5,16.0,29.68,West,264,3.0,-999.0,48,-99.99,,,0.00,weatherlink.com 1.10,2013-02-18 03:25:00,
2013-02-17 20:40:00,32.4,16.0,29.69,West,264,2.0,-999.0,51,-99.99,,,0.00,weatherlink.com 1.10,2013-02-18 03:40:00,
2013-02-17 20:55:00,31.5,16.0,29.68,West,264,4.0,-999.0,53,-99.99,,,0.00,weatherlink.com 1.10,2013-02-18 03:55:00,
2013-02-17 21:10:00,30.6,16.0,29.69,West,264,3.0,-999.0,55,-99.99,,,0.00,weatherlink.com 1.10,2013-02-18 04:10:00,
2013-02-17 21:25:00,30.3,17.0,29.65,West,264,1.0,-999.0,57,-99.99,,,0.00,weatherlink.com 1.10,2013-02-18 04:25:00,
2013-02-17 21:40:00,29.4,17.0,29.66,West,264,0.0,-999.0,59,-99.99,,,0.00,weatherlink.com 1.10,2013-02-18 04:40:00,
2013-02-17 21:56:00,29.1,17.0,29.66,West,264,0.0,-999.0,61,-99.99,,,0.00,weatherlink.com 1.10,2013-02-18 04:56:00,
2013-02-17 22:10:00,28.2,17.0,29.68,West,264,0.0,-999.0,63,-99.99,,,0.00,weatherlink.com 1.10,2013-02-18 05:10:00,
2013-02-17 22:25:00,28.4,18.0,29.68,West,264,0.0,-999.0,65,-99.99,,,0.00,weatherlink.com 1.10,2013-02-18 05:25:00,
2013-02-17 22:40:00,29.4,18.0,29.67,West,264,2.0,-999.0,63,-99.99,,,0.00,weatherlink.com 1.10,2013-02-18 05:40:00,
2013-02-17 22:55:00,28.7,19.0,29.68,West,264,0.0,-999.0,66,-99.99,,,0.00,weatherlink.com 1.10,2013-02-18 05:55:00,
2013-02-17 23:11:00,29.0,19.0,29.67,West,264,2.0,-999.0,65,-99.99,,,0.00,weatherlink.com 1.10,2013-02-18 06:11:00,
2013-02-17 23:25:00,28.7,18.0,29.65,West,264,3.0,-999.0,65,-99.99,,,0.00,weatherlink.com 1.10,2013-02-18 06:25:00,
2013-02-17 23:40:00,28.4,18.0,29.67,West,264,0.0,-999.0,66,-99.99,,,0.00,weatherlink.com 1.10,2013-02-18 06:40:00,
2013-02-17 23:55:00,30.7,19.0,29.67,West,264,0.0,-999.0,61,-99.99,,,0.00,weatherlink.com 1.10,2013-02-18 06:55:00,